Kecskemet, Hungary

1:22 PM CEST on September 21, 2017 (GMT +0200)
Kecskemet

Weather History for LHKE - October, 2012

Change the Weather History Date:

Monday, October 29, 2012

  Actual Average (LHBP) Record (LHBP)
Temperature  
Mean Temperature 36 °F -  
Max Temperature 39 °F 54 °F 69 °F (2004)
Min Temperature 32 °F 36 °F 14 °F (1997)
Degree Days  
Heating Degree Days 30    
Moisture  
Dew Point 35 °F    
Average Humidity 96    
Maximum Humidity 100    
Minimum Humidity 87    
Precipitation  
Precipitation 0.00 in - - ()
Sea Level Pressure  
Sea Level Pressure 29.81 in    
Wind  
Wind Speed 7 mph ()    
Max Wind Speed 11 mph    
Max Gust Speed -    
Visibility 3.6 miles    
Events Rain , Snow , Hail    
Averages and records for this station are not official NWS values.
T = Trace of Precipitation, MM = Missing Value Source: Averaged Metar Reports

Daily Weather History Graph

Daily Weather History Graph

Search for Another Location

Airport or City:

Trip Planner

Search our weather history database for the weather conditions in past years. The results will help you decide how hot, cold, wet, or windy it might be!

Date:

Astronomy

Oct. 29, 2012 Rise Set
Actual Time 6:19 AM CET 4:29 PM CET
Civil Twilight 5:47 AM CET 5:00 PM CET
Nautical Twilight 5:12 AM CET 5:36 PM CET
Astronomical Twilight 4:36 AM CET 6:11 PM CET
Moon 4:08 PM CET (10/29) 5:53 AM CET (10/29)
Length of Visible Light 11h 13m
Length of Day
10h 09m
Full, 100% of the Moon is Illuminated
Oct 29
Full
Oct 29
Full
Nov 7
Last Quarter
Nov 13
New
Nov 20
First Quarter

Hourly Weather History & Observations

Time (CET) Temp. Windchill Dew Point Humidity Pressure Visibility Wind Dir Wind Speed Gust Speed Precip Events Conditions
12:15 AM 37.4 °F 30.9 °F 33.8 °F 87% 29.80 in 6.2 mi NE 8.9 mph - N/A   Overcast
12:45 AM 37.4 °F 30.9 °F 33.8 °F 87% 29.80 in 4.3 mi NE 8.9 mph - N/A Rain Light Rain
1:15 AM 35.6 °F 28.7 °F 33.8 °F 93% 29.80 in 5.0 mi NE 8.9 mph - N/A   Overcast
1:45 AM 35.6 °F 28.7 °F 35.6 °F 100% 29.80 in 6.2 mi NE 8.9 mph - N/A   Overcast
2:15 AM 35.6 °F 30.0 °F 35.6 °F 100% 29.80 in 5.0 mi NNE 6.7 mph - N/A Rain Light Rain
2:45 AM 35.6 °F 28.7 °F 35.6 °F 100% 29.77 in 5.0 mi NNE 8.9 mph - N/A   Overcast
3:15 AM 35.6 °F 28.7 °F 33.8 °F 93% 29.80 in 5.0 mi NNE 8.9 mph - N/A   Overcast
3:45 AM 35.6 °F 28.7 °F 33.8 °F 93% 29.80 in 4.3 mi NNE 8.9 mph - N/A Rain Light Rain Showers
3:57 AM 35.6 °F 30.0 °F 33.8 °F 93% 29.80 in 3.1 mi NNE 6.7 mph - N/A Rain Rain Showers
4:15 AM 35.6 °F 27.7 °F 33.8 °F 93% 29.77 in 3.1 mi NE 11.2 mph - N/A Rain Light Rain Showers
4:45 AM 35.6 °F 28.7 °F 33.8 °F 93% 29.77 in 6.2 mi NE 8.9 mph - N/A   Overcast
5:00 AM - - - N/A% - 6.2 mi NE 8.9 mph - N/A   Overcast
5:02 AM 35.6 °F 30.0 °F 33.8 °F 93% 29.77 in 3.1 mi NNE 6.7 mph - N/A Rain Rain Showers
5:15 AM 35.6 °F 31.8 °F 33.8 °F 93% 29.80 in 1.9 mi North 4.5 mph - N/A Hail Hail Showers
5:45 AM - - - N/A% - 0.9 mi North 6.7 mph - N/A   Overcast
5:57 AM 33.8 °F 27.9 °F 33.8 °F 100% 29.77 in 0.4 mi NNE 6.7 mph - N/A Snow Snow
6:00 AM - - - N/A% - 6.2 mi NE 8.9 mph - N/A   Overcast
6:15 AM 32.0 °F 27.6 °F 32.0 °F 100% 29.80 in 0.2 mi North 4.5 mph - N/A Snow Heavy Snow
6:45 AM 32.0 °F 27.6 °F 32.0 °F 100% 29.80 in 0.4 mi North 4.5 mph - N/A Snow Light Snow
7:15 AM 32.0 °F 27.6 °F 32.0 °F 100% 29.80 in 0.5 mi NNW 4.5 mph - N/A Snow Light Snow
7:36 AM 32.0 °F 27.6 °F 32.0 °F 100% 29.77 in 0.9 mi North 4.5 mph - N/A Snow Light Snow
7:45 AM 33.8 °F 29.7 °F 33.8 °F 100% 29.77 in 1.2 mi NNW 4.5 mph - N/A Snow Light Snow
7:56 AM 33.8 °F 29.7 °F 33.8 °F 100% 29.80 in 1.9 mi NNW 4.5 mph - N/A Snow Light Snow
8:15 AM 33.8 °F 29.7 °F 33.8 °F 100% 29.83 in 1.9 mi West 4.5 mph - N/A   Overcast
8:45 AM - - - N/A% - 3.1 mi WNW 8.9 mph - N/A   Overcast
8:57 AM 33.8 °F 27.9 °F 33.8 °F 100% 29.83 in 0.9 mi WNW 6.7 mph - N/A Rain , Snow Light Snow
9:15 AM 33.8 °F 27.9 °F 33.8 °F 100% 29.83 in 0.9 mi West 6.7 mph - N/A Snow Light Snow
9:45 AM 33.8 °F 29.7 °F 33.8 °F 100% 29.83 in 0.9 mi WNW 4.5 mph - N/A Rain , Snow Light Snow
10:15 AM 33.8 °F 29.7 °F 33.8 °F 100% 29.83 in 1.6 mi WNW 4.5 mph - N/A   Overcast
10:37 AM 33.8 °F 29.7 °F 33.8 °F 100% 29.83 in 1.2 mi WNW 4.5 mph - N/A Snow Light Snow
10:45 AM 33.8 °F 29.7 °F 33.8 °F 100% 29.83 in 1.2 mi WNW 4.5 mph - N/A Snow Light Snow
11:15 AM 33.8 °F 29.7 °F 33.8 °F 100% 29.83 in 2.5 mi NNW 4.5 mph - N/A Rain , Snow Light Snow
11:27 AM - - - N/A% - 5.0 mi WNW 8.9 mph - N/A   Overcast
11:45 AM - - - N/A% - 6.2 mi WNW 8.9 mph - N/A   Overcast
12:15 PM - - - N/A% - 6.2 mi WNW 8.9 mph - N/A   Overcast
12:45 PM 35.6 °F 31.8 °F 35.6 °F 100% 29.80 in 4.3 mi WNW 4.5 mph - N/A   Overcast
1:15 PM - - - N/A% - 6.2 mi WNW 8.9 mph - N/A   Overcast
1:45 PM 37.4 °F 33.9 °F 35.6 °F 93% 29.80 in 5.0 mi WNW 4.5 mph - N/A   Overcast
2:15 PM 37.4 °F - 35.6 °F 93% 29.80 in 5.0 mi West 2.2 mph - N/A   Overcast
2:45 PM 37.4 °F - 35.6 °F 93% 29.80 in 5.0 mi WNW 2.2 mph - N/A   Overcast
3:15 PM 39.2 °F - 35.6 °F 87% 29.80 in 5.0 mi South 2.2 mph - N/A   Overcast
3:45 PM 37.4 °F - 35.6 °F 93% 29.80 in 3.7 mi South 2.2 mph - N/A   Overcast
4:15 PM 39.2 °F 36.0 °F 37.4 °F 93% 29.80 in 3.7 mi SW 4.5 mph - N/A   Overcast
4:40 PM 37.4 °F - 37.4 °F 100% 29.83 in 3.7 mi SW 2.2 mph - N/A Rain Light Rain
4:45 PM 39.2 °F - 37.4 °F 93% 29.83 in 3.7 mi SW 2.2 mph - N/A Rain Light Drizzle
5:00 PM - - - N/A% - 6.2 mi WNW 8.9 mph - N/A   Overcast
5:15 PM 37.4 °F 30.9 °F 37.4 °F 100% 29.80 in 3.7 mi WNW 8.9 mph - N/A Rain Light Drizzle
5:45 PM - - - N/A% - 6.2 mi West 8.9 mph - N/A   Overcast
6:15 PM 37.4 °F 30.9 °F 35.6 °F 93% 29.83 in 3.7 mi WNW 8.9 mph - N/A Rain Light Rain
6:45 PM 37.4 °F 30.9 °F 35.6 °F 93% 29.83 in 3.7 mi WNW 8.9 mph - N/A Rain , Snow Light Rain
7:15 PM 37.4 °F 30.9 °F 35.6 °F 93% 29.83 in 3.7 mi WNW 8.9 mph - N/A Rain , Snow Light Snow
7:45 PM 37.4 °F 30.9 °F 35.6 °F 93% 29.83 in 3.7 mi WNW 8.9 mph - N/A   Overcast
8:15 PM 37.4 °F 32.2 °F 35.6 °F 93% 29.83 in 3.7 mi NW 6.7 mph - N/A   Overcast
8:45 PM - - - N/A% - 5.0 mi West 8.9 mph - N/A   Overcast
9:15 PM 37.4 °F 33.9 °F 35.6 °F 93% 29.83 in 3.7 mi WNW 4.5 mph - N/A   Overcast
9:45 PM 37.4 °F 32.2 °F 35.6 °F 93% 29.83 in 3.7 mi WNW 6.7 mph - N/A   Overcast
10:15 PM 37.4 °F 32.2 °F 35.6 °F 93% 29.86 in 3.7 mi West 6.7 mph - N/A   Overcast
10:45 PM 37.4 °F 30.9 °F 35.6 °F 93% 29.86 in 3.7 mi West 8.9 mph - N/A   Overcast
11:15 PM 37.4 °F 32.2 °F 33.8 °F 87% 29.86 in 3.7 mi West 6.7 mph - N/A   Overcast
11:45 PM - - - N/A% - 6.2 mi North - - N/A   Overcast